Flag for Canada Weather past 2 weeks in Laval, Quebec, Canada

Now
70 °F

Broken clouds.


Feels Like: 70 °F
Forecast: N/A
Wind: 10 mph from North

Location: Montreal / Mirabel

Current Time: May 28, 2015 at 7:04:39 PM

Latest Report: May 28, 2015 at 6:00 PM


Visibility: 25 mi

Pressure: 30.15 "Hg

Humidity: 64%

Dew point: 57 °F

Location of LavalLocation

Historic Weather in Laval — Graph

°F

Laval temperature yesterday

Maximum temperature yesterday: 79 °F (at 4:00 PM)
Minimum temperature yesterday: 64 °F (at 2:48 AM)
Average temperature yesterday: 72 °F

Past Weeks' High & Low Weather Summary

 TemperatureHumidityPressure
High82 °F (May 26, 4:00 PM)100% (May 18, 11:00 PM)30.42 "Hg (May 18, 11:00 PM)
Low32 °F (May 23, 1:00 AM)21% (May 20, 6:00 PM)29.61 "Hg (May 19, 5:00 PM)
Average60 °F62%30.03 "Hg
* Reported May 13 5:00 PM — May 28 5:00 PM, Laval, Weather by CustomWeather, © 2015

Note: Actual official high and low records may vary slightly from our data, if they occured in-between our weather recording intervals... More about our weather records

Advertising

Laval weather history for previous 24 hours

 ConditionsComfort  
Time TempWeatherWind HumidityBarometerVisibility
5:00 PM
Thu, May 28
68 °FBroken clouds.12 mph73%30.14 "Hg25 mi
4:00 PM70 °FPartly sunny.7 mph73%30.11 "Hg25 mi
3:00 PM68 °FBroken clouds.5 mph88%30.08 "Hg25 mi
2:00 PM66 °FSprinkles. Cloudy.8 mph88%30.07 "Hg10 mi
1:00 PM66 °FSprinkles. Mostly cloudy.8 mph88%30.06 "Hg15 mi
12:00 PM64 °FSprinkles. Mostly cloudy.6 mph94%30.05 "Hg10 mi
11:00 AM66 °FMostly cloudy.5 mph88%30.03 "Hg20 mi
10:00 AM64 °FSprinkles. Mostly cloudy.5 mph94%30.02 "Hg25 mi
9:00 AM63 °FRain showers. Mostly cloudy.5 mph94%30.02 "Hg15 mi
8:45 AM64 °FSprinkles. Mostly cloudy.7 mph88%30.02 "Hg10 mi
8:00 AM66 °FCloudy.7 mph83%30.01 "Hg45 mi
7:00 AM66 °FMostly cloudy.5 mph78%30.00 "Hg45 mi
6:00 AM66 °FPartly cloudy.6 mph73%29.98 "Hg45 mi
5:00 AM66 °FPassing clouds.10 mph73%29.95 "Hg25 mi
4:00 AM68 °FPassing clouds.8 mph69%29.94 "Hg25 mi
3:00 AM68 °FPassing clouds.6 mph73%29.93 "Hg25 mi
2:00 AM68 °FPassing clouds.5 mph78%29.93 "Hg25 mi
1:00 AM68 °FPassing clouds.6 mph78%29.91 "Hg25 mi
12:00 AM70 °FPassing clouds.9 mph73%29.92 "Hg25 mi
11:00 PM
Wed, May 27
73 °FClear.5 mph61%29.92 "Hg25 mi
10:00 PM73 °FPassing clouds.12 mph61%29.91 "Hg25 mi
9:00 PM73 °FPartly sunny.10 mph65%29.91 "Hg25 mi
8:00 PM75 °FPartly sunny.13 mph61%29.90 "Hg45 mi
7:00 PM79 °FPartly sunny.13 mph58%29.89 "Hg40 mi
Weather by CustomWeather, © 2015

See weather overviewHow to use our weather pages